This is the latest recevied weather packets stored in our database for station/object W1HVD. If no packets are shown the sender has not sent any weather packets the latest 10 day(s).
| Time | Temp. | Humidity | Pressure | Rain* | Wind** | Luminosity | Snow |
|---|---|---|---|---|---|---|---|
| 1778242450 | 10.56° C | 51% | 1010.5 hPa | 0 mm | - | 176 W/m² | - |
| 1778242147 | 10.56° C | 51% | 1010.6 hPa | 0 mm | - | 147 W/m² | - |
| 1778241844 | 10.56° C | 58% | 1010.5 hPa | 0 mm | - | 127 W/m² | - |
| 1778241541 | 10° C | 54% | 1010.6 hPa | 0 mm | - | 131 W/m² | - |
| 1778241239 | 10° C | 55% | 1010.6 hPa | 0 mm | - | 148 W/m² | - |
| 1778240935 | 9.44° C | 56% | 1010.6 hPa | 0 mm | - | 107 W/m² | - |
| 1778240632 | 8.33° C | 63% | 1010.7 hPa | 0 mm | - | 73 W/m² | - |
| 1778240329 | 7.78° C | 65% | 1010.5 hPa | 0 mm | - | 93 W/m² | - |
| 1778240027 | 7.22° C | 74% | 1010.6 hPa | 0 mm | - | 63 W/m² | - |
| 1778239724 | 6.67° C | 77% | 1010.5 hPa | 0 mm | - | 76 W/m² | - |
| 1778239421 | 6.67° C | 79% | 1010.3 hPa | 0 mm | - | 74 W/m² | - |
| 1778239117 | 6.67° C | 78% | 1010.6 hPa | 0 mm | - | 66 W/m² | - |
| 1778238814 | 6.11° C | 72% | 1010.4 hPa | 0 mm | - | 67 W/m² | - |
| 1778238512 | 5.56° C | 82% | 1010.4 hPa | 0 mm | - | 66 W/m² | - |
| 1778238209 | 5° C | 84% | 1010.4 hPa | 0 mm | - | 87 W/m² | - |
| 1778237909 | 5° C | 85% | 1010.4 hPa | 0 mm | - | 66 W/m² | - |
| 1778237606 | 4.44° C | 83% | 1010.3 hPa | 0 mm | - | 43 W/m² | - |
| 1778237303 | 4.44° C | 83% | 1010.1 hPa | 0 mm | - | 43 W/m² | - |
| 1778236999 | 4.44° C | 84% | 1010.2 hPa | 0 mm | - | 33 W/m² | - |
| 1778236697 | 4.44° C | 83% | 1010.1 hPa | 0 mm | - | 31 W/m² | - |
| 1778236394 | 4.44° C | 83% | 1010.1 hPa | 0 mm | - | 30 W/m² | - |
| 1778236092 | 4.44° C | 82% | 1009.9 hPa | 0 mm | - | 28 W/m² | - |
| 1778235789 | 4.44° C | 81% | 1009.8 hPa | 0 mm | - | 28 W/m² | - |
| 1778235486 | 3.89° C | 83% | 1010 hPa | 0 mm | - | 24 W/m² | - |
| 1778235183 | 3.89° C | 83% | 1010 hPa | 0 mm | - | 22 W/m² | - |
* Rain latest hour (hover to see other rain measurements)
** Current wind speed in m/s (hover to see current wind gust speed)